Location: Calvera
(42.3882°N, 0.6137°E)
Time: 13:23:24
(UTC+00:00)

Cosmos 1461 - Pass Details

Date: 28 October 2020
Orbit: 500 x 665 km, 65.0° (Epoch: 24 November)

Event Time Altitude Azimuth Distance (km) Brightness Sun altitude
Exits shadow 03:57:39 52° 111° (ESE) 790 3.8 -28.0°
Drops below altitude 10° 04:02:03 10° 42° (NE) 2,058 6.3 -27.2°
Sets 04:04:26 0° 38° (NE) 2,989 7.2 -26.7°
